Regional Weather Roundup
Issued by NWS Wakefield, VA

Home | Current Version | Previous Version | Graphics & Text | Print | Product List | Glossary On
Versions: 1 2 3 4 5 6 7 8 9 10 11 12 13 14 15 16 17 18 19 20 21 22 23 24 25 26 27 28 29 30 31 32 33 34 35 36 37 38 39 40 41 42 43 44 45 46 47 48 49 50
000
ASUS41 KAKQ 270416
RWRAKQ

REGIONAL WEATHER ROUNDUP
NATIONAL WEATHER SERVICE WAKEFIELD VA
1200 AM EDT TUE JUN 27 2017

Note: "fair" indicates few or no clouds below 12,000 feet with no
significant weather and/or obstructions to visibility. * = Denotes
station may not report precipitation (e.g., rain,snow,etc.),
thunder or fog.

VAZ042-051-052>054-056-270500-
NORTHERN VIRGINIA

CITY           SKY/WX    TMP DP  RH WIND       PRES   REMARKS
WASH NATIONAL  MOCLDY    75  63  66 S9        29.99S
DULLES         CLOUDY    72  51  47 NW6       30.01R
FORT BELVOIR   MOCLDY    66  60  80 CALM      29.99S
QUANTICO       CLEAR     67  62  84 NW8       30.00S
FREDERICKSBRG* CLEAR     65  59  81 CALM      29.99S
STAFFORD*      CLEAR     57  57 100 CALM      30.04R
WARRENTON      CLEAR     60  54  80 CALM      30.01R
CULPEPER*      CLEAR     61  57  88 CALM      30.03R
MANASSAS*      PTCLDY    65  57  75 N3        30.02R
LEESBURG*      CLOUDY    72  54  53 NW6       30.03R
WINCHESTER     MOCLDY    64  46  52 S3        30.04R
FRONT ROYAL*   CLEAR     64  46  52 CALM      30.03S
LURAY*         CLEAR     63  54  72 CALM      30.04S
$$

VAZ048-049-060>072-079>083-270500-
CENTRAL AND SOUTH CENTRAL VIRGINIA

CITY           SKY/WX    TMP DP  RH WIND       PRES   REMARKS
RICHMOND       CLEAR     66  56  70 SW7       30.02R
CHESTERFIELD*  FAIR      65  57  75 CALM      30.02S
PETERSBURG*    CLEAR     58  57  98 CALM      30.03S
HANOVER        CLEAR     63  56  78 CALM      30.02S
TAPPAHANNOCK*  CLEAR     64  64  99 CALM      30.02R
QUINTON*       FAIR      63  63 100 CALM      30.01R
CHARLOTTSVILLE CLEAR     65  55  70 CALM      30.03R
GORDONSVILLE*  CLEAR     59  57  92 SW3       30.02R
ORANGE*        CLEAR     63  54  72 SW6       30.02R
LOUISA*        PTCLDY    64  57  77 CALM      30.02R
BUMPASS*       FAIR      61  57  86 CALM      30.01S
FARMVILLE*     PTCLDY    62  56  82 CALM      30.01S
CREWE*         FAIR      61  57  87 CALM      30.02F
FORT PICKETT*  FAIR      65  51  60 CALM      30.03S
CHASE CITY*    FAIR      64  64  99 CALM      30.04S
CLARKSVILLE*   FAIR      63  63 100 CALM      30.03S
SOUTH HILL*    CLEAR     62  61  96 CALM      30.10R
LAWRENCEVILLE* FAIR      65  57  77 CALM      30.04R
EMPORIA*       CLEAR     63  59  88 CALM      30.05R
$$

VAZ088>098-270500-
SOUTHEAST VIRGINIA

CITY           SKY/WX    TMP DP  RH WIND       PRES   REMARKS
NORFOLK        PTCLDY    71  59  65 S3        30.03R
VIRGINIA BEACH PTCLDY    70  58  65 S6        30.02S
NORFOLK NAVAL  MOCLDY    72  58  61 S5        30.04R
WEST POINT*    CLEAR     64  59  83 CALM      30.03S
SALUDA*        FAIR      69  59  71 S3        30.01S
NEWPORT NEWS   PTCLDY    73  58  59 S6        30.02S
LANGLEY AFB    CLOUDY    73  61  65 S3        30.02S
FORT EUSTIS    PTCLDY    72  59  63 S5        30.00S
WILLIAMSBURG*  PTCLDY    72  61  68 CALM      30.03S
HR EXEC AP*    FAIR      63  57  82 S3        30.01S
FRANKLIN*      MOCLDY    64  63  94 CALM      30.03S
US460-WAKEFLD  CLEAR     63  61  93 CALM      30.02S
$$

VAZ020-022-025-037-045-270500-
WEST CENTRAL AND SOUTHWEST VIRGINIA

CITY           SKY/WX    TMP DP  RH WIND       PRES   REMARKS
STAUNTON*      CLEAR     57  49  73 CALM      30.09S
WAYNESBORO*    CLEAR     58  53  83 S7        30.08S
HOT SPRINGS VA CLEAR     55  37  50 W8        30.15F
LYNCHBURG      CLEAR     61  56  83 CALM      30.05S
DANVILLE       CLEAR     62  60  93 CALM      30.04S
SOUTH BOSTON*  FAIR      64  62  93 CALM      30.03F
MARTINSVILLE   CLEAR     60  59  97 CALM      30.08S
ROANOKE        CLOUDY    68  49  50 NW5       30.09S
BLACKSBURG     CLOUDY    63  51  66 CALM      30.14S
DUBLIN*        CLOUDY    65  45  47 NW5       30.13S
MARION*        CLEAR     59  51  73 CALM      30.16F
HILLSVILLE*    MOCLDY    62  49  63 CALM      30.13S
RICHLANDS*     FAIR      61  17  18 NW3       30.16S
WISE*          CLEAR     57  48  72 CALM      30.17S
ABINGDON*      PTCLDY    63  57  80 CALM      30.13S
$$

MDZ021>025-VAZ099-100-270500-
SOUTHERN MARYLAND AND THE DELMARVA PENINSULA

CITY           SKY/WX    TMP DP  RH WIND       PRES   REMARKS
PATUXENT RIVER CLEAR     72  59  63 S6        29.99F
BAY BRIDGE APT PTCLDY    75  61  60 S7        29.98F
LEONARDTOWN    CLEAR     68  59  73 CALM      30.01S
DOVER          CLEAR     67  60  76 S8        29.98F
GEORGETOWN     CLEAR     67  57  70 S7        30.02S
EASTON         CLEAR     71  58  63 S6        30.03F
CAMBRIDGE      CLEAR     66  59  77 SE6       30.00S
SALISBURY      CLEAR     65  60  84 S6        30.01F
OCEAN CITY     CLEAR     71  63  75 SW6       30.02F
WALLOPS ISLAND MOCLDY    70  65  84 S7        30.02F
ACCOMACK*      PTCLDY    69  60  73 S6        30.02S
$$

NCZ012>017-030>032-270500-
NORTH CENTRAL AND EASTERN NORTH CAROLINA

CITY           SKY/WX    TMP DP  RH WIND       PRES   REMARKS
ROANOKE RAPIDS FAIR      63  63 100 CALM      30.04R
RALEIGH        PTCLDY    69  59  70 CALM      30.05S
ELIZABETH CITY CLEAR     68  63  84 S5        30.04R
AHOSKIE*         N/A     65  64  96 CALM      30.04R
EDENTON*       CLEAR     74  64  71 CALM      30.04S
CURRITUCK*     CLEAR     69  63  80 CALM      30.04S
KILL DEVIL HLS CLEAR     70  63  80 CALM      30.03R
MANTEO         CLEAR     67  62  83 CALM      30.04S
CAPE HATTERAS  CLEAR     68  64  87 CALM      30.04S
TARBORO*       NOT AVBL
GOLDSBORO      PTCLDY    70  66  88 CALM      30.02F
WASHINGTON     PTCLDY   N/A N/A N/A S3        30.04S
GREENVILLE     MOCLDY    70  64  83 S3        30.05S
NEW BERN       CLEAR     68  66  93 CALM      30.05S
WILMINGTON     CLEAR     69  67  93 CALM      30.04S
$$

VAZ048-270500-
ELSEWHERE

CITY           SKY/WX    TMP DP  RH WIND       PRES   REMARKS
HARRISBURG PA  PTCLDY    63  61  93 NW10      30.01R
BALTIMORE      MOCLDY    72  58  61 SW5       29.98S
ANNAPOLIS      PTCLDY    71  64  78 S3        29.98F
ANDREWS AFB    PTCLDY    67  58  70 S7        29.99S
PHILADELPHIA   PTCLDY    70  54  56 S8        29.99S
HENDERSON NC   CLEAR     65  58  77 CALM      30.04F
GREENSBORO     MOCLDY    67  59  75 SW5       30.05F
ROCKY MOUNT    PTCLDY    69  67  93 CALM      30.04S
$$

VAZ100-270500-
MARINE

STATION/POSITION TIME  TEMP    WIND        PRES    WAVE   SWELL
                       AIR SEA DIR/SP/G            HT/PER HT/PER
                 (UTC) (F)     (DEG/KT/KT) (MB)    (FT/S) (FT/S)
BRANDYWINE LGT   0348          220/ 13/ 14   N/A
CAPE MAY NJ      0348   70 69  200/  5/  6 1015.9F
LEWES DE         0348          210/  4/  6   N/A
15NM E FENWICK I 0350   71 68  190/  8/ 10 1016.8F   1/ 7   2/ 7
OCEAN-CITY-INLET 0348   69 69  220/  5/  6 1016.8F
WACHAPREAGUE VA  0348   74 79  170/  9/ 12 1016.4R
THOMAS POINT MD  0400   77 77  180/ 16/ 18   N/A
GOOSES REEF MD   0400   76 78  190/ 14/ 17 1016.3    2/ 3
COVE POINT MD    0348   74     200/ 12/ 15 1016.3F
SOLOMONS ISLAND  0348   74 79  200/ 10/ 12   N/A
BISHOPS HEAD MD  0348   76 80  180/ 11/ 13 1015.9F
PINEY POINT MD   0348          200/ 13/ 15   N/A
POTOMAC MD       0400   75 79  210/ 14/ 16 1015.1    2/ 3
CAMBRIDGE MD     0348   71 81              1016.5F
LEWISETTA VA     0348   72 80  210/  8/ 10 1015.8F
RAPPAHANNOCK LGT 0348          170/ 16/ 17 1016.9S
STINGRAY PT      0400   76 78  210/ 16/ 17 1015.9    2/ 3
YORK RVR RNG VA  0348   76     190/ 14/ 15 1016.6S
YORKTOWN VA      0348   74 79  190/  7/  8 1016.1R
JAMESTOWN VA     0400   72 83  170/  8/ 12   N/A
DOMINION TERM VA 0348   75     170/ 10/ 12 1016.6R
KIPTOPEKE VA     0348          180/ 11/ 12   N/A
CHES BAY BRIDGE  0348   73 75  200/ 10/ 12 1016.6R
CAPE HENRY VA    0348   71     180/  6/  8   N/A
WILLOUBY STN VA  0348   74     170/ 12/ 13 1016.3R
S CRANEY ISL VA  0348   74     170/  8/ 11 1016.5R
CAPE HENRY BUOY  0400      73                N/A     1/ 8
1ST LANDING BUOY 0400   75 75              1016.8    1/ 2
CAPE CHARLES BUO 0351      72                N/A     1/ 8
64NM E OF VA BCH 0350   74 74  110/  6/  8 1017.2F   2/ 8   2/ 8
DUCK PIER NC     0348   73 69  150/  5/  6 1016.7R
44100 DUCK FRF   0335      72                N/A     1/ 9
OREGON INLET NC  0342   72 80  120/  2/  3 1017.0R
HATTERAS NC      0348   75 79  160/  2/  3 1017.0R
DIAMOND SHLS NC  0350   77 81   10/  2/  2 1017.0R   2/ 8   2/ 8
CAPE LOOKOUT NC  0400   76      CALM  /  1 1016.8S
$$



USA.gov is the U.S. government's official web portal to all federal, state and local government web resources and services.